Theta_e
289 291 287 284 284 283 283 282 282 284 285 283 285 284 287 290 289 288 289 290 290 291 294 294 294 294 293 293 292 292 291 292 292 292 291 291 291 292 293 294 294 295 295 296
290 286 285 286 286 284 283 281 282 284 283 283 284 282 286 287 287 288 289 290 290 290 291 291 292 293 293 293 292 291 291 291 291 291 291 291 290 291 291 292 293 294 295 296
288 285 286 285 284 282 283 282 280 280 283 281 281 285 284 285 287 288 289 289 290 290 291 291 291 292 293 293 293 291 291 290 290 290 291 291 291 291 291 291 291 292 293 293
285 286 285 284 283 283 281 282 281 280 280 279 281 278 284 283 285 286 288 289 290 290 290 291 291 292 293 293 293 291 291 290 289 290 289 289 287 286 288 289 290 291 291 291
285 283 283 282 282 283 281 283 281 278 277 276 276 277 284 282 283 284 287 289 290 290 291 291 291 292 292 292 292 291 290 289 288 289 289 288 287 288 288 288 288 289 290 290
283 286 285 284 283 283 282 279 277 277 277 275 271 275 282 283 284 285 287 288 287 288 289 290 291 291 291 292 291 291 289 287 287 288 289 288 286 286 285 286 285 286 288 289
280 281 284 284 282 283 280 279 278 276 276 277 267 272 281 285 284 286 286 287 288 288 288 289 289 289 290 290 290 289 286 285 286 287 288 287 286 285 284 284 284 284 286 287
280 279 280 283 281 280 277 278 277 272 274 276 268 273 283 283 284 286 285 286 286 287 288 288 288 288 288 288 288 286 284 284 286 287 286 286 286 284 283 283 283 285 286 287
278 277 281 282 283 280 278 277 276 271 263 271 277 277 282 283 282 282 283 285 286 287 287 287 287 287 287 286 286 283 282 284 285 285 285 285 285 284 283 284 284 285 286 287
279 278 276 280 282 280 279 278 276 276 271 271 276 272 279 284 285 281 282 284 285 285 286 286 285 285 285 284 283 282 282 284 284 285 285 284 284 284 284 284 284 285 286 288
278 277 276 278 278 278 277 277 275 276 274 273 271 278 284 282 283 283 283 283 283 284 285 284 283 283 283 282 281 281 283 284 284 284 284 284 284 285 284 284 285 286 287 288
280 278 276 278 278 280 278 279 279 276 272 272 271 276 284 282 281 278 280 283 284 284 284 282 281 281 282 280 280 280 283 283 283 283 283 283 284 284 284 284 286 287 287 288
281 277 275 276 276 278 277 277 278 275 275 272 273 278 282 278 279 282 279 283 284 285 283 281 280 280 280 279 278 279 281 282 282 283 283 283 283 283 284 285 286 287 287 288
284 278 278 277 279 279 275 277 278 277 274 277 275 278 283 284 284 285 286 286 285 285 281 279 278 278 277 276 275 276 279 280 281 282 281 282 282 283 284 286 286 286 287 286
282 276 276 277 277 274 276 276 277 273 276 274 278 277 281 284 284 285 285 285 284 284 283 281 279 279 276 274 274 275 277 277 279 279 279 280 281 283 284 285 286 286 286 286
282 277 271 272 278 277 274 276 276 275 277 276 276 276 283 285 285 281 282 282 282 283 284 281 279 278 275 274 274 274 275 275 277 278 278 279 281 281 282 283 284 285 285 285
278 276 271 275 270 270 271 273 276 277 276 277 273 279 286 280 283 283 283 282 282 283 283 281 280 278 276 274 273 273 274 274 276 278 278 279 280 280 280 282 283 282 283 284
278 275 275 274 270 269 280 279 279 278 277 277 278 279 280 281 284 282 283 281 281 283 282 281 279 276 274 272 269 270 272 274 277 278 278 280 278 279 280 281 281 282 283 283
283 278 275 273 273 277 279 282 275 275 280 280 279 281 283 284 280 283 286 282 282 283 282 279 278 275 272 269 270 270 273 275 276 278 279 280 280 280 280 280 281 282 282 282
277 280 277 270 269 270 278 278 278 279 275 284 282 282 283 280 280 286 286 282 282 282 282 280 280 276 276 277 276 275 276 275 278 278 278 279 281 281 280 281 281 282 282 282
272 274 273 274 272 276 280 279 279 275 279 282 282 284 282 280 286 288 283 284 283 283 283 281 279 278 277 277 276 276 278 277 278 278 279 279 280 281 281 282 282 281 281 281
272 272 271 274 270 269 279 277 276 283 283 281 282 283 282 283 284 284 284 283 284 284 283 281 279 277 277 276 275 275 276 278 276 277 278 278 279 280 280 280 280 280 280 279
273 278 276 277 277 281 280 283 283 283 283 282 282 283 283 283 282 284 284 284 284 284 282 280 279 277 277 275 275 275 276 276 275 276 275 276 277 278 278 278 278 279 279 278
273 277 276 277 281 278 279 282 282 282 282 284 284 284 283 282 283 283 283 283 283 284 282 279 277 276 276 274 274 275 274 274 274 275 275 275 276 277 277 278 278 278 278 277
280 276 276 277 281 280 282 281 283 283 283 282 284 283 283 284 283 283 283 283 284 284 281 277 276 276 276 274 273 273 273 273 275 275 275 276 276 277 277 278 278 278 278 279
280 279 276 277 283 282 284 287 285 283 283 284 284 283 283 282 283 284 283 284 284 283 281 276 276 276 276 274 273 272 271 272 275 274 275 276 277 277 277 279 279 281 281 281
Wind_Speed
3 1 2 2 2 3 2 2 6 3 2 7 9 14 24 15 14 16 15 12 10 8 6 10 9 7 4 5 5 6 8 9 7 7 8 7 9 9 10 9 13 14 13 14
1 2 3 6 3 2 1 2 4 7 0 6 12 22 22 8 2 3 2 3 3 5 8 11 10 7 6 6 7 7 9 9 8 6 7 7 8 9 10 11 13 12 13 13
1 4 5 1 1 2 2 3 3 5 9 1 13 9 3 2 2 3 3 1 1 3 7 10 10 10 8 8 8 8 9 9 8 10 8 8 9 10 10 10 10 11 14 14
3 2 2 2 2 3 3 1 1 4 7 5 8 7 8 2 6 2 3 3 1 3 6 8 10 11 10 9 7 9 9 10 9 10 10 12 11 13 11 12 11 12 14 14
2 2 2 2 1 1 2 2 2 2 1 4 2 4 5 2 2 2 4 3 1 2 6 9 11 12 11 8 9 9 9 10 10 10 11 10 13 11 11 11 15 15 13 15
3 1 2 2 3 2 6 1 2 2 0 3 3 4 6 4 5 6 5 4 1 1 5 8 10 11 12 9 8 8 10 11 10 10 12 14 15 15 13 13 12 11 11 10
1 1 1 1 3 3 2 2 3 3 2 3 1 5 11 4 6 3 4 4 4 2 3 6 9 10 12 11 9 8 9 12 11 12 13 14 14 15 16 14 11 14 10 9
2 2 1 4 2 2 2 2 2 5 3 5 3 8 3 1 4 5 3 5 8 7 3 7 9 9 9 9 10 8 10 12 11 12 13 13 14 9 11 12 12 10 10 11
3 3 2 3 1 2 4 3 2 5 2 3 3 6 16 4 8 10 10 6 7 8 9 12 11 9 9 9 8 8 10 11 12 13 12 13 12 13 12 15 13 11 13 12
3 3 1 2 1 5 2 4 2 1 4 6 4 6 6 4 1 1 2 6 7 9 11 11 10 9 7 7 7 7 8 10 12 12 11 11 13 13 13 13 14 15 14 14
4 2 3 1 7 5 4 3 2 2 2 4 6 5 7 6 3 6 7 8 10 9 11 9 10 8 6 6 6 7 7 10 10 10 12 12 12 13 13 13 13 13 15 14
4 2 5 4 2 2 1 2 6 4 5 2 4 10 2 6 6 5 9 11 13 10 9 8 10 7 6 6 5 6 7 9 10 10 11 12 13 12 12 13 13 13 13 12
7 3 4 3 3 1 5 5 4 3 0 10 6 10 2 3 5 8 11 13 12 11 9 7 7 6 6 5 6 6 7 8 9 10 11 12 12 12 12 12 12 11 10 9
7 5 6 10 2 4 5 7 11 7 6 11 15 26 17 20 17 18 13 11 12 11 8 8 6 6 5 5 5 5 7 7 9 9 11 11 11 12 11 11 10 9 9 8
5 7 7 12 11 6 8 10 13 14 19 12 18 15 20 16 19 17 15 15 14 13 7 6 5 6 4 5 4 4 6 7 9 8 9 9 10 10 9 9 9 8 9 8
6 3 3 6 12 12 13 18 17 22 20 18 24 26 26 24 18 14 13 11 11 11 8 7 6 6 6 5 4 4 5 5 7 6 7 8 9 9 8 8 8 8 8 9
7 5 5 9 3 5 9 19 22 10 9 17 16 20 5 9 9 7 8 8 11 10 8 7 6 6 5 4 4 4 5 5 7 5 6 7 8 8 8 8 8 8 9 9
8 6 4 6 1 14 3 3 4 16 10 17 10 12 9 10 7 11 11 13 12 7 7 6 6 5 5 4 4 3 4 4 5 5 7 6 6 7 7 7 8 8 8 9
14 9 5 6 10 12 15 10 9 11 13 24 23 19 16 3 5 11 6 8 10 6 5 5 4 4 3 5 5 4 5 3 4 4 6 7 6 6 7 7 8 7 8 9
2 8 9 4 7 11 4 3 4 5 10 14 23 19 15 7 5 7 2 3 8 8 7 7 7 6 6 7 6 6 5 4 3 3 5 6 5 6 6 6 6 6 6 8
5 5 17 14 11 10 6 7 6 6 9 4 18 14 11 7 6 7 2 8 6 8 7 7 8 9 9 6 6 7 6 6 3 3 3 4 4 4 5 5 5 5 6 6
13 11 8 9 9 18 11 8 10 6 2 4 10 10 12 10 6 9 10 10 10 10 8 9 9 10 8 8 7 7 8 4 3 3 2 3 3 3 3 3 3 4 4 6
10 15 9 14 10 2 14 8 18 2 4 5 7 10 10 8 8 11 11 11 11 10 6 6 10 9 8 8 9 8 5 5 4 3 0 1 2 2 3 3 4 3 5 6
6 4 10 8 17 13 12 16 7 7 13 11 10 8 7 12 13 12 11 11 10 9 8 5 8 9 10 9 9 8 5 6 4 4 3 1 2 2 3 3 4 4 5 5
3 8 9 13 15 4 12 13 15 15 15 13 13 14 16 14 13 14 12 11 11 10 5 5 9 10 12 10 10 8 7 7 6 5 4 4 3 4 5 5 5 5 5 5
14 18 13 14 6 9 19 17 11 15 16 17 17 14 15 14 15 15 12 12 11 11 6 6 9 10 10 10 10 9 9 9 8 7 6 5 5 4 4 5 7 12 11 12
Wind_Direction
29 102 44 71 59 63 98 265 276 271 23 308 279 285 281 288 266 260 267 261 251 236 207 180 182 190 210 242 264 291 300 298 298 302 311 309 307 307 298 296 292 288 285 283
42 66 77 105 88 101 102 280 273 287 278 308 301 291 283 295 232 225 235 192 182 165 174 184 198 211 227 258 267 268 275 285 295 299 306 299 298 292 295 293 288 282 280 280
42 94 142 155 152 232 230 242 277 289 315 201 310 274 292 147 231 228 233 330 74 182 188 200 214 228 239 251 262 270 281 291 297 300 296 292 289 285 291 292 293 291 288 284
66 92 172 167 221 222 265 119 306 325 336 303 4 290 294 338 305 250 179 182 182 217 227 237 238 243 247 261 276 275 288 295 294 299 293 294 294 294 296 295 292 289 282 278
99 170 185 204 33 197 55 40 34 49 71 307 81 248 263 316 143 96 167 143 148 259 265 260 254 256 260 269 276 284 290 289 293 291 291 295 292 293 297 291 291 285 283 278
71 30 351 59 77 60 132 99 66 104 183 246 79 296 263 205 163 148 152 146 74 288 286 282 277 268 265 265 276 287 290 291 295 295 293 293 293 297 295 293 293 286 284 283
82 113 14 305 185 130 173 258 289 254 230 301 133 245 262 251 218 187 204 176 176 228 258 285 288 289 274 267 287 294 294 297 302 299 298 298 297 297 293 296 290 289 285 282
295 227 26 1 335 348 135 279 255 279 273 326 161 238 245 292 310 244 263 283 279 264 343 322 309 298 287 273 294 296 299 298 302 303 304 304 301 297 289 284 286 283 281 280
189 215 146 29 30 328 137 204 46 100 97 265 256 268 271 254 258 263 266 257 258 255 301 319 312 299 288 285 288 295 298 300 307 309 309 305 302 297 290 290 284 280 280 276
164 255 294 162 205 64 284 118 162 156 283 277 253 270 258 330 10 88 225 258 276 264 292 306 304 301 289 276 283 289 292 298 308 311 309 307 307 297 294 288 285 281 278 275
145 263 117 242 202 180 148 194 77 333 277 267 304 266 202 221 225 240 264 264 259 276 293 296 303 295 281 274 283 294 299 315 314 316 313 308 302 302 300 291 286 283 285 283
175 199 245 232 73 325 256 239 198 228 195 247 295 271 108 242 259 252 277 281 290 281 281 290 294 288 275 276 292 296 312 317 322 317 314 311 307 311 304 295 294 292 287 285
176 198 283 204 159 186 234 193 199 106 108 212 231 261 137 232 263 253 256 279 285 288 293 287 298 282 270 281 293 309 322 326 319 323 323 317 319 319 308 308 308 304 294 297
178 204 228 254 331 110 190 203 214 204 216 258 226 271 276 289 300 300 297 286 285 292 286 293 285 259 256 273 285 299 302 329 318 329 322 319 324 320 315 318 318 318 318 318
205 236 218 249 259 222 235 232 210 207 229 235 261 249 270 285 289 293 296 294 291 293 281 280 270 259 257 267 280 287 300 329 318 326 316 323 325 323 326 333 336 342 341 340
198 228 158 261 257 244 247 245 233 235 243 249 260 273 268 276 285 283 282 280 279 283 288 293 274 263 256 257 269 284 294 316 312 325 325 321 327 331 341 345 348 354 357 357
181 188 181 258 20 291 249 227 221 211 214 220 228 238 256 270 256 260 288 260 264 270 280 281 262 248 246 247 253 262 290 318 302 331 321 330 339 341 347 356 5 7 5 358
178 179 194 285 300 252 283 186 215 205 228 211 247 246 219 236 272 289 266 254 273 263 271 263 234 230 238 228 233 265 272 288 294 357 333 345 347 343 349 2 12 13 12 12
206 186 221 241 236 294 295 246 188 189 252 213 220 240 253 243 298 273 226 212 250 262 262 258 247 211 213 227 225 230 263 277 296 355 342 352 350 345 354 8 16 18 20 21
251 220 212 155 242 257 105 144 194 159 263 217 201 221 233 156 247 314 215 231 256 247 249 244 221 215 222 229 196 220 242 256 274 332 329 336 350 0 358 9 20 17 21 28
175 197 221 223 246 263 226 154 158 198 273 178 185 199 173 190 234 300 267 283 254 262 243 224 209 219 220 210 198 228 236 243 251 286 314 330 340 359 356 4 14 18 26 31
178 185 199 215 231 259 154 119 206 205 254 174 197 194 191 221 259 265 271 268 274 269 238 219 219 221 209 202 203 220 232 216 230 265 302 334 337 352 2 8 22 27 29 40
212 211 202 203 219 203 190 221 218 186 224 205 203 217 216 229 242 271 276 271 267 264 246 202 215 216 205 200 205 216 217 180 201 210 180 359 356 8 30 41 32 40 41 46
251 167 225 222 234 234 216 236 238 227 235 245 231 234 221 248 261 258 265 265 262 263 245 204 201 214 216 198 201 216 172 170 180 178 152 154 113 87 75 74 59 60 52 51
204 143 238 251 246 324 250 238 240 237 245 254 249 233 246 257 255 251 255 255 258 257 231 190 211 219 221 187 202 192 179 169 184 178 152 151 136 117 98 84 86 74 55 56
211 227 221 237 261 221 253 245 212 225 238 242 249 249 236 231 244 255 251 250 250 252 229 206 221 224 216 190 197 187 176 175 174 177 164 166 156 157 138 119 97 67 70 63